This demonstration page uses our WeatherBlox Daily Observations layout. Learn more.

Left ArrowRight Arrow

39.08367, -84.50855

Hourly Observations for June 15, 2015

Temp ( °F °C ) Dew Point ( °F °C ) Humidity (%) Winds ( mph kmh ) Pressure ( in mb ) Visibility ( mi km ) Precip ( " mm )
12:53 am 00:53 Clear 75 23.9 70 21.1 84 84 SSW 7 11 30.02 1017 10 16.0934 N/A
1:53 am 01:53 Clear 76 24.4 70 21.1 82 82 SW 6 9 30.03 1017 10 16.0934 N/A
2:53 am 02:53 Mostly Clear 76 24.4 70 21.1 82 82 SW 7 11 30.03 1017 10 16.0934 N/A
3:53 am 03:53 Mostly Cloudy 75 23.9 71 21.7 88 88 SSW 7 11 30.02 1017 10 16.0934 N/A
4:53 am 04:53 Partly Cloudy 74 23.3 70 21.1 88 88 SSW 6 9 30.02 1017 10 16.0934 N/A
5:53 am 05:53 Mostly Clear 72 22.2 70 21.1 94 94 SSW 6 9 30.03 1017 10 16.0934 N/A
6:53 am 06:53 Mostly Sunny 73 22.8 71 21.7 94 94 SSW 5 7 30.04 1017 10 16.0934 N/A
7:53 am 07:53 Mostly Cloudy 77 25 71 21.7 82 82 SW 8 13 30.04 1017 10 16.0934 N/A
8:53 am 08:53 Sunny 80 26.7 71 21.7 74 74 WSW 12 19 30.06 1018 10 16.0934 N/A
9:53 am 09:53 Mostly Sunny 82 27.8 72 22.2 72 72 W 13 20 30.06 1018 10 16.0934 N/A
10:53 am 10:53 Mostly Cloudy 84 28.9 72 22.2 67 67 W 16 26 30.06 1018 10 16.0934 N/A
11:53 am 11:53 Partly Cloudy 85 29.4 72 22.2 65 65 WSW 10 17 30.04 1017 10 16.0934 N/A
12:53 pm 12:53 Mostly Cloudy 87 30.6 72 22.2 61 61 SW 10 17 30.03 1017 10 16.0934 N/A
1:26 pm 13:26 Mostly Cloudy with Nearby Thunderstorms 86 30 70 21 59 59 SW 14 22 30 1016 10 16.0934 N/A
1:30 pm 13:30 Windy with Storms Likely 84 29 70 21 62 62 WSW 23 37 30.03 1017 10 16.0934 N/A
1:50 pm 13:50 Cloudy 79 26 72 22 79 79 WSW 14 22 30.03 1017 10 16.0934 N/A
1:53 pm 13:53 Mostly Cloudy 79 26.1 72 22.2 79 79 WSW 13 20 30.04 1017 10 16.0934 N/A
2:53 pm 14:53 Mostly Cloudy 84 28.9 73 22.8 70 70 SW 9 15 30.01 1016 10 16.0934 N/A
3:53 pm 15:53 Partly Cloudy 86 30 71 21.7 61 61 WSW 10 17 29.98 1015 10 16.0934 N/A
4:53 pm 16:53 Mostly Sunny 89 31.7 70 21.1 53 53 SSW 15 24 29.97 1015 10 16.0934 N/A
5:53 pm 17:53 Partly Cloudy 88 31 70 21 55 55 SW 9 15 29.91 1013 10 16.0934 N/A
6:53 pm 18:53 Partly Cloudy 87 30.6 68 20 53 53 SW 15 24 29.95 1014 10 16.0934 N/A
7:53 pm 19:53 Sunny 86 30 68 20 55 55 SW 9 15 29.94 1014 10 16.0934 N/A
8:53 pm 20:53 Sunny 84 28.9 68 20 59 59 SW 8 13 29.95 1014 10 16.0934 N/A
9:53 pm 21:53 Mostly Cloudy 82 27.8 68 20 63 63 SSW 9 15 29.97 1015 10 16.0934 N/A
10:53 pm 22:53 Clear 78 25.6 68 20 71 71 SSW 8 13 29.98 1015 10 16.0934 N/A
11:53 pm 23:53 Mostly Cloudy 78 25.6 69 20.6 74 74 SSW 7 11 29.99 1016 10 16.0934 N/A

Powered by AerisWeather